TimeEDT,TemperatureF,Dew PointF,Humidity,Sea Level PressureIn,VisibilityMPH,Wind Direction,Wind SpeedMPH,Gust SpeedMPH,PrecipitationIn,Events,Conditions,WindDirDegrees,DateUTC
12:03 AM,62.6,57.2,82,30.06,10.0,East,5.8,-,N/A,,Overcast,80,2012-10-03 04:03:00
12:52 AM,63.0,57.0,81,30.06,10.0,East,6.9,-,N/A,,Overcast,80,2012-10-03 04:52:00
1:52 AM,62.1,59.0,90,30.06,10.0,East,5.8,-,0.00,,Overcast,90,2012-10-03 05:52:00
2:23 AM,62.6,60.8,94,30.05,10.0,East,5.8,-,N/A,,Overcast,90,2012-10-03 06:23:00
2:52 AM,63.0,60.1,90,30.05,10.0,East,5.8,-,N/A,,Overcast,80,2012-10-03 06:52:00
3:52 AM,63.0,61.0,93,30.05,10.0,East,6.9,-,0.00,,Overcast,80,2012-10-03 07:52:00
4:42 AM,62.6,60.8,94,30.05,2.5,East,5.8,-,N/A,,Overcast,90,2012-10-03 08:42:00
4:52 AM,63.0,62.1,97,30.06,1.0,East,5.8,-,N/A,,Overcast,80,2012-10-03 08:52:00
4:59 AM,62.6,62.6,100,30.05,0.8,East,4.6,-,N/A,,Overcast,100,2012-10-03 08:59:00
5:52 AM,63.0,62.1,97,30.07,0.5,East,6.9,-,N/A,Fog,Fog,90,2012-10-03 09:52:00
6:38 AM,62.6,62.6,100,30.07,1.5,East,6.9,-,N/A,,Overcast,100,2012-10-03 10:38:00
6:47 AM,62.6,62.6,100,30.07,2.5,ESE,4.6,-,N/A,,Overcast,120,2012-10-03 10:47:00
6:52 AM,63.0,63.0,100,30.07,3.0,ESE,4.6,-,N/A,,Overcast,120,2012-10-03 10:52:00
7:02 AM,62.6,62.6,100,30.07,2.5,ESE,6.9,-,0.00,Rain,Light Rain,120,2012-10-03 11:02:00
7:52 AM,63.0,63.0,100,30.08,2.0,ESE,5.8,-,0.01,,Overcast,110,2012-10-03 11:52:00
8:17 AM,62.6,62.6,100,30.08,1.2,East,5.8,-,N/A,,Overcast,90,2012-10-03 12:17:00
8:28 AM,62.6,62.6,100,30.08,0.8,ENE,4.6,-,N/A,,Overcast,70,2012-10-03 12:28:00
8:52 AM,63.0,63.0,100,30.10,0.8,East,4.6,-,N/A,,Overcast,90,2012-10-03 12:52:00
9:44 AM,64.4,64.4,100,30.10,0.2,East,5.8,-,N/A,Fog,Fog,80,2012-10-03 13:44:00
9:52 AM,64.0,64.0,100,30.11,0.2,East,5.8,-,N/A,Fog,Fog,80,2012-10-03 13:52:00
10:30 AM,64.4,64.4,100,30.10,0.5,East,6.9,-,N/A,Fog,Fog,90,2012-10-03 14:30:00
10:39 AM,64.4,64.4,100,30.10,0.2,Variable,5.8,-,N/A,Fog,Fog,0,2012-10-03 14:39:00
10:52 AM,64.9,64.0,97,30.10,0.2,East,5.8,-,N/A,Fog,Fog,100,2012-10-03 14:52:00
11:06 AM,64.4,64.4,100,30.10,0.5,Variable,5.8,-,N/A,Fog,Fog,0,2012-10-03 15:06:00
11:52 AM,64.0,64.0,100,30.10,0.5,ESE,8.1,-,N/A,Fog,Fog,120,2012-10-03 15:52:00
12:10 PM,64.4,64.4,100,30.09,1.5,ESE,8.1,-,N/A,,Overcast,110,2012-10-03 16:10:00
12:34 PM,64.4,64.4,100,30.09,1.2,ESE,5.8,-,N/A,,Overcast,120,2012-10-03 16:34:00
12:52 PM,64.9,64.0,97,30.09,1.5,ESE,6.9,-,N/A,,Overcast,120,2012-10-03 16:52:00
1:05 PM,64.4,64.4,100,30.08,3.0,Variable,4.6,-,N/A,,Overcast,0,2012-10-03 17:05:00
1:19 PM,64.4,64.4,100,30.09,1.8,SE,5.8,-,N/A,,Overcast,140,2012-10-03 17:19:00
1:31 PM,64.4,62.6,94,30.09,2.5,SE,8.1,-,N/A,,Overcast,140,2012-10-03 17:31:00
1:38 PM,64.4,62.6,94,30.09,4.0,SE,5.8,-,N/A,,Overcast,130,2012-10-03 17:38:00
1:46 PM,64.4,62.6,94,30.09,1.8,SE,5.8,-,N/A,,Overcast,130,2012-10-03 17:46:00
1:52 PM,64.0,63.0,96,30.09,1.0,ESE,6.9,-,N/A,,Overcast,120,2012-10-03 17:52:00
2:00 PM,64.4,64.4,100,30.08,0.8,ESE,6.9,-,N/A,,Overcast,120,2012-10-03 18:00:00
2:10 PM,64.4,62.6,94,30.09,1.0,SE,5.8,-,N/A,,Overcast,130,2012-10-03 18:10:00
2:29 PM,64.4,62.6,94,30.09,0.8,ESE,6.9,-,N/A,,Overcast,120,2012-10-03 18:29:00
2:52 PM,64.0,63.0,96,30.09,0.8,Variable,5.8,-,0.01,,Overcast,0,2012-10-03 18:52:00
3:23 PM,64.4,64.4,100,30.08,1.0,SE,4.6,-,0.00,Rain,Light Rain,130,2012-10-03 19:23:00
3:52 PM,64.0,63.0,96,30.09,1.0,ESE,4.6,-,0.01,,Overcast,110,2012-10-03 19:52:00
4:00 PM,64.4,64.4,100,30.09,0.8,SE,3.5,-,N/A,,Overcast,130,2012-10-03 20:00:00
4:52 PM,63.0,63.0,100,30.10,0.2,ESE,4.6,-,N/A,Fog,Fog,120,2012-10-03 20:52:00
5:52 PM,63.0,63.0,100,30.10,0.2,SE,3.5,-,N/A,Fog,Fog,130,2012-10-03 21:52:00
6:52 PM,64.0,63.0,96,30.11,0.2,Calm,Calm,-,0.01,Fog,Fog,0,2012-10-03 22:52:00
7:41 PM,64.4,62.6,94,30.11,0.5,Calm,Calm,-,N/A,Fog,Fog,0,2012-10-03 23:41:00
7:52 PM,64.0,63.0,96,30.11,0.5,Calm,Calm,-,N/A,Fog,Fog,0,2012-10-03 23:52:00
8:52 PM,64.0,63.0,96,30.12,0.5,Calm,Calm,-,N/A,Fog,Fog,0,2012-10-04 00:52:00
9:52 PM,63.0,63.0,100,30.14,0.5,Calm,Calm,-,N/A,Fog,Fog,0,2012-10-04 01:52:00
10:00 PM,62.6,62.6,100,30.13,0.2,Calm,Calm,-,N/A,Fog,Fog,0,2012-10-04 02:00:00
10:32 PM,62.6,62.6,100,30.13,0.5,Calm,Calm,-,N/A,Fog,Fog,0,2012-10-04 02:32:00
10:52 PM,64.0,63.0,96,30.14,0.5,Calm,Calm,-,N/A,Fog,Fog,0,2012-10-04 02:52:00
11:52 PM,64.0,63.0,96,30.14,0.5,Calm,Calm,-,0.01,Fog,Fog,0,2012-10-04 03:52:00